Location: Ash Shall?l al Awwal
(24.0167°N, 32.8667°E)
Time: 10:48:02
(UTC+00:00)

Cosmos 2366 rocket - Pass Details

Date: 02 March 2021
Orbit: 954 x 998 km, 82.9° (Epoch: 15 April)

Event Time Altitude Azimuth Distance (km) Brightness Sun altitude
Rises 17:48:52 0° 191° (S) 3,659 7.1 -27.5°
Reaches altitude 10° 17:51:23 10° 194° (SSW) 2,720 6.4 -28.1°
Maximum altitude 17:57:34 66° 275° (W) 1,067 4.3 -29.5°
Drops below altitude 10° 18:03:51 10° 358° (N) 2,756 6.4 -30.9°
Sets 18:06:25 0° 1° (N) 3,711 7.1 -31.5°
